Tracking 35334 objects as of 12-Sep-2026
HD Live streaming from Space Station
objects crossing your sky now

PROGRESS MS-27


PROGRESS MS-27 is no longer on orbit
PROGRESS MS-27 is classified as:


NORAD ID: 59913
Int'l Code: 2024-103A
Launch date: May 30, 2024
Source: Commonwealth of Independent States (former USSR) (CIS)
Launch site: TYURATAM MISSILE AND SPACE COMPLEX (TTMTR)
Decay date: 2024-11-19

PROGRESS MS-27 is a Russian cargo spacecraft carrying about three tons of food, fuel, and supplies for the Expedition 71 crew.
Your satellite tracking list
Your tracking list is empty




NASA's NSSDC Master Catalog

Two Line Element Set (TLE):
1 59913U 24103A   24325.62291667  .00026711  00000-0  47816-3 0  9998
2 59913  51.6423 260.3587 0007574 248.5800 115.8879 15.49751346 26968
Source of the keplerian elements: AFSPC